"2019/01/01",  2.9,  8.1, -2.9
"2019/01/02",  4.7,  9.3, -0.6
"2019/01/03",  2.5,  8.3, -3.3
"2019/01/04"," * "," * "," * "
"2019/01/05"," * "," * "," * "
"2019/01/06"," * "," * "," * "
"2019/01/07"," * "," * "," * "
"2019/01/08",  3.3,  9.4, -1.9
"2019/01/09",  3.2,  6.2, -1.1
"2019/01/10",  0.1,  3.9, -4.5
"2019/01/11",  4.3, 10.7, -1.8
"2019/01/12"," * "," * "," * "
"2019/01/13"," * "," * "," * "
"2019/01/14"," * "," * "," * "
"2019/01/15"," * "," * "," * "
"2019/01/16",  4.8,  8.9,  0.9
"2019/01/17",  5.1, 10.0, -0.5
"2019/01/18",  4.8,  7.2,  2.3
"2019/01/19",  5.0, 10.5,  1.1
"2019/01/20",  4.5, 11.4, -1.8
"2019/01/21",  4.4,  7.9,  0.8
"2019/01/22",  3.3,  9.2, -2.6
"2019/01/23",  4.3,  9.9, -0.1
"2019/01/24",  4.3,  7.3,  0.2
"2019/01/25",  3.1,  6.9,  0.1
"2019/01/26",  2.7,  5.5, -0.6
"2019/01/27",  2.2,  7.0, -2.0
"2019/01/28",  3.4, 11.3, -2.2
"2019/01/29",  4.0,  7.8, -1.7
"2019/01/30",  2.9,  7.4, -2.9
"2019/01/31",  2.2,  7.8, -1.8
"2019/02/01",  2.2,  5.7, -1.1
"2019/02/02",  5.2, 12.0, -1.8
"2019/02/03",  5.3, 11.6, -1.2
"2019/02/04", 11.9, 16.5,  5.0
"2019/02/05",  4.9,  6.5,  3.2
"2019/02/06",  5.7,  7.5,  3.5
"2019/02/07",  6.7, 14.7,  0.3
"2019/02/08",  4.1,  8.1,  0.6
"2019/02/09", -0.3,  1.0, -1.6
"2019/02/10",  1.7,  4.5, -0.6
"2019/02/11",  1.1,  3.0, -1.5
"2019/02/12",  3.4,  6.6, -0.4
"2019/02/13",  3.0,  5.3,  1.0
"2019/02/14",  2.7,  5.4,  0.3
"2019/02/15",  1.4,  3.0, -0.4
"2019/02/16",  3.9,  9.5,  0.0
"2019/02/17",  4.0,  7.4,  0.0
"2019/02/18",  4.5, 10.2, -1.4
"2019/02/19",  6.8,  8.9,  4.8
"2019/02/20",  7.6, 11.3,  3.3
"2019/02/21",  7.7, 12.1,  4.4
"2019/02/22"," * "," * "," * "
"2019/02/23"," * "," * "," * "
"2019/02/24"," * "," * "," * "
"2019/02/25"," * "," * "," * "
"2019/02/26",  7.9,  9.2,  6.7
"2019/02/27",  6.4,  8.1,  3.7
"2019/02/28",  6.3,  8.9,  4.7
"2019/03/01",  7.6, 12.2,  5.9
"2019/03/02",  7.3, 10.7,  2.4
"2019/03/03",  6.0,  7.1,  4.6
"2019/03/04",  7.7,  9.9,  5.2
"2019/03/05",  7.3,  9.4,  4.5
"2019/03/06",  9.1, 12.7,  6.5
"2019/03/07",  7.8,  9.7,  6.3
"2019/03/08",  5.8,  8.8,  2.1
"2019/03/09",  7.7, 14.4,  0.8
"2019/03/10", 10.3, 12.8,  7.0
"2019/03/11", 11.5, 15.2,  9.6
"2019/03/12",  9.9, 13.3,  4.7
"2019/03/13",  9.9, 15.8,  4.7
"2019/03/14",  6.7, 10.7,  0.8
"2019/03/15",  7.9, 11.3,  3.8
"2019/03/16",  7.8, 10.0,  5.5
"2019/03/17",  7.1, 10.3,  3.9
"2019/03/18",  7.5, 10.3,  4.7
"2019/03/19", 11.5, 16.5,  7.1
"2019/03/20", 11.5, 14.5,  8.5
"2019/03/21", 14.9, 18.8,  9.9
"2019/03/22", 13.5, 18.4,  8.5
"2019/03/23",  5.6,  8.6,  3.9
"2019/03/24",  6.6, 11.6,  0.0
"2019/03/25",  8.1, 11.5,  4.1
"2019/03/26",  9.9, 12.1,  7.9
"2019/03/27", 12.3, 16.9,  6.2
"2019/03/28", 10.7, 13.9,  6.6
"2019/03/29",  6.1,  7.1,  5.0
"2019/03/30",  7.3,  8.7,  6.1
"2019/03/31",  8.1, 10.6,  6.4
"2019/04/01",  6.8, 11.0,  2.4
"2019/04/02",  6.0, 10.8,  1.6
"2019/04/03",  5.9, 10.3,  0.0
"2019/04/04",  8.4, 14.8,  0.5
"2019/04/05", 12.7, 18.0,  4.8
"2019/04/06", 13.5, 18.3,  8.5
"2019/04/07", 12.8, 15.6, 11.0
"2019/04/08",  8.4, 12.1,  5.0
"2019/04/09",  8.6, 13.3,  3.0
"2019/04/10",  6.5,  9.2,  4.5
"2019/04/11",  7.6, 12.0,  4.1
"2019/04/12"," * "," * "," * "
"2019/04/13"," * "," * "," * "
"2019/04/14"," * "," * "," * "
"2019/04/15"," * "," * "," * "
"2019/04/16"," * "," * "," * "
"2019/04/17", 13.6, 16.5, 10.9
"2019/04/18", 14.3, 17.4, 11.4
"2019/04/19", 15.4, 18.9, 12.0
"2019/04/20", 11.0, 13.2,  8.7
"2019/04/21", 12.9, 15.1, 10.7
"2019/04/22", 15.3, 18.8, 12.9
"2019/04/23", 15.7, 19.2, 12.9
"2019/04/24", 18.1, 20.0, 15.8
"2019/04/25", 18.2, 20.6, 12.2
"2019/04/26",  9.9, 12.8,  8.5
"2019/04/27",  8.7, 10.2,  6.9
"2019/04/28",  9.9, 14.2,  4.8
"2019/04/29", 13.7, 17.0,  9.4
"2019/04/30", 14.4, 16.3, 12.6
"2019/05/01", 15.8, 18.8, 14.0
"2019/05/02", 17.0, 21.9, 14.1
"2019/05/03", 16.1, 19.4, 11.2
"2019/05/04", 16.4, 18.2, 14.5
"2019/05/05", 17.3, 21.6, 12.5
"2019/05/06", 18.1, 21.5, 15.7
"2019/05/07", 12.8, 15.9,  9.0
"2019/05/08", 14.3, 20.0,  6.2
"2019/05/09", 17.8, 20.7, 15.0
"2019/05/10", 18.1, 22.9, 11.2
"2019/05/11", 18.3, 23.0, 14.2
"2019/05/12", 13.3, 14.4, 12.3
"2019/05/13", 14.5, 17.6, 11.5
"2019/05/14", 17.6, 20.4, 15.9
"2019/05/15", 17.4, 19.3, 15.1
"2019/05/16", 17.9, 20.1, 15.5
"2019/05/17", 18.2, 20.5, 15.4
"2019/05/18", 18.8, 21.0, 16.4
"2019/05/19", 18.8, 20.8, 17.0
"2019/05/20", 19.0, 21.0, 16.2
"2019/05/21", 18.5, 20.0, 14.4
"2019/05/22", 16.3, 18.5, 14.2
"2019/05/23", 18.4, 21.4, 13.9
"2019/05/24", 20.9, 27.7, 14.7
"2019/05/25", 21.9, 26.5, 16.8
"2019/05/26", 23.1, 29.1, 17.1
"2019/05/27", 23.7, 29.8, 18.6
"2019/05/28", 22.4, 25.3, 19.4
"2019/05/29", 17.7, 19.6, 16.1
"2019/05/30", 19.0, 23.7, 15.8
"2019/05/31", 20.1, 22.4, 18.1
"2019/06/01", 19.5, 21.8, 16.5
"2019/06/02", 20.5, 22.9, 18.1
"2019/06/03", 20.4, 22.3, 18.7
"2019/06/04", 20.9, 24.0, 18.5
"2019/06/05", 21.1, 24.2, 18.9
"2019/06/06", 21.9, 26.2, 18.7
"2019/06/07", 19.0, 20.1, 18.3
"2019/06/08", 18.6, 19.4, 16.5
"2019/06/09", 16.5, 17.4, 14.9
"2019/06/10", 16.3, 17.9, 15.1
"2019/06/11", 17.3, 19.4, 15.1
"2019/06/12", 16.8, 17.9, 15.0
"2019/06/13", 19.2, 24.4, 14.5
"2019/06/14", 20.0, 22.5, 17.1
"2019/06/15", 17.7, 19.6, 15.9
"2019/06/16", 22.7, 27.2, 16.8
"2019/06/17", 21.4, 24.5, 17.9
"2019/06/18", 21.4, 23.2, 19.2
"2019/06/19", 22.3, 27.0, 19.1
"2019/06/20", 20.3, 21.8, 18.9
"2019/06/21", 21.6, 24.1, 19.9
"2019/06/22", 21.2, 22.9, 20.1
"2019/06/23", 20.1, 21.4, 19.0
"2019/06/24", 18.3, 19.1, 17.6
"2019/06/25", 20.4, 24.3, 16.9
"2019/06/26", 23.1, 27.9, 18.8
"2019/06/27", 24.2, 27.1, 20.7
"2019/06/28", 22.8, 26.1, 19.4
"2019/06/29", 19.2, 19.8, 18.5
"2019/06/30", 20.5, 23.1, 19.8
"2019/07/01", 20.9, 21.5, 20.2
"2019/07/02", 22.8, 26.4, 20.5
"2019/07/03", 22.5, 24.4, 21.4
"2019/07/04", 21.8, 24.9, 19.8
"2019/07/05", 20.3, 21.5, 19.6
"2019/07/06", 20.4, 21.2, 19.6
"2019/07/07", 19.3, 20.7, 17.9
"2019/07/08", 18.6, 19.5, 17.9
"2019/07/09", 18.5, 19.4, 17.9
"2019/07/10", 18.9, 20.4, 17.5
"2019/07/11", 19.4, 21.0, 18.1
"2019/07/12", 19.4, 20.5, 17.9
"2019/07/13", 22.0, 25.4, 18.8
"2019/07/14", 20.8, 22.4, 19.6
"2019/07/15", 20.1, 21.3, 19.2
"2019/07/16", 19.9, 20.7, 18.9
"2019/07/17", 21.5, 24.1, 20.3
"2019/07/18", 22.7, 25.5, 20.3
"2019/07/19", 25.7, 29.3, 23.3
"2019/07/20", 24.7, 27.6, 22.9
"2019/07/21", 21.8, 23.3, 20.3
"2019/07/22", 20.9, 21.7, 20.2
"2019/07/23", 22.9, 25.0, 21.4
"2019/07/24", 24.6, 27.1, 22.4
"2019/07/25", 25.6, 28.8, 22.9
"2019/07/26", 27.4, 30.7, 24.7
"2019/07/27", 27.4, 30.5, 25.5
"2019/07/28", 26.2, 28.6, 23.9
"2019/07/29", 27.3, 32.3, 24.3
"2019/07/30", 28.1, 32.1, 25.0
"2019/07/31", 28.3, 32.1, 24.7
"2019/08/01", 28.5, 31.8, 25.3
"2019/08/02", 28.4, 32.0, 26.0
"2019/08/03", 28.1, 32.2, 24.7
"2019/08/04", 27.5, 31.0, 24.8
"2019/08/05", 27.7, 30.8, 25.5
"2019/08/06", 29.0, 33.4, 25.6
"2019/08/07", 28.7, 33.6, 25.7
"2019/08/08", 28.6, 33.1, 25.5
"2019/08/09", 28.4, 32.3, 25.1
"2019/08/10", 27.9, 31.0, 25.3
"2019/08/11", 25.4, 26.4, 24.3
"2019/08/12", 26.5, 30.4, 23.9
"2019/08/13", 27.8, 30.6, 26.5
"2019/08/14", 27.8, 30.0, 26.3
"2019/08/15", 28.3, 30.0, 26.9
"2019/08/16", 28.0, 28.9, 27.0
"2019/08/17", 29.1, 32.8, 26.2
"2019/08/18", 27.1, 29.1, 25.5
"2019/08/19", 25.4, 26.6, 24.6
"2019/08/20", 24.9, 28.1, 22.0
"2019/08/21", 24.5, 26.7, 22.7
"2019/08/22", 24.4, 26.8, 22.6
"2019/08/23", 25.9, 28.2, 23.8
"2019/08/24", 25.7, 28.1, 23.9
"2019/08/25", 24.9, 28.3, 21.6
"2019/08/26", 23.7, 25.4, 21.6
"2019/08/27", 24.3, 26.3, 22.2
"2019/08/28", 25.2, 27.9, 22.8
"2019/08/29", 27.2, 31.7, 24.2
"2019/08/30", 25.3, 27.0, 24.0
"2019/08/31", 25.5, 27.4, 24.1
"2019/09/01", 26.1, 28.6, 24.2
"2019/09/02", 25.0, 26.6, 23.5
"2019/09/03", 23.7, 24.9, 22.2
"2019/09/04", 22.6, 23.8, 20.8
"2019/09/05", 24.2, 26.4, 22.4
"2019/09/06", 26.1, 30.4, 23.5
"2019/09/07", 26.4, 28.9, 23.8
"2019/09/08", 27.2, 29.8, 25.2
"2019/09/09", 28.0, 33.3, 23.8
"2019/09/10", 27.8, 31.0, 25.4
"2019/09/11", 26.3, 29.9, 23.8
"2019/09/12", 23.6, 24.9, 22.4
"2019/09/13", 21.6, 22.7, 20.0
"2019/09/14", 22.2, 24.8, 18.7
"2019/09/15", 23.5, 25.5, 20.9
"2019/09/16", 22.8, 24.5, 21.5
"2019/09/17", 23.6, 25.9, 21.9
"2019/09/18", 20.6, 22.6, 18.3
"2019/09/19", 20.7, 22.6, 18.8
"2019/09/20", 21.1, 23.7, 18.5
"2019/09/21", 20.9, 21.8, 19.6
"2019/09/22", 20.9, 23.0, 19.1
"2019/09/23", 25.4, 30.0, 20.2
"2019/09/24", 24.0, 25.7, 22.1
"2019/09/25", 22.5, 24.9, 21.0
"2019/09/26", 20.8, 21.9, 19.3
"2019/09/27", 21.0, 24.3, 18.5
"2019/09/28", 22.8, 27.6, 19.0
"2019/09/29", 23.9, 25.9, 22.1
"2019/09/30", 22.8, 24.3, 21.3
"2019/10/01", 22.0, 25.1, 19.9
"2019/10/02", 22.0, 26.5, 18.8
"2019/10/03", 22.7, 25.5, 19.2
"2019/10/04", 24.2, 28.0, 21.9
"2019/10/05", 23.7, 27.2, 20.8
"2019/10/06", 19.9, 22.1, 18.1
"2019/10/07", 19.0, 20.7, 17.2
"2019/10/08", 20.8, 25.4, 18.1
"2019/10/09", 19.5, 21.2, 17.4
"2019/10/10", 18.5, 21.3, 15.9
"2019/10/11"," * "," * "," * "
"2019/10/12", 22.5, 24.5, 19.2
"2019/10/13", 22.8, 25.5, 17.7
"2019/10/14", 17.6, 19.3, 16.0
"2019/10/15", 17.3, 18.7, 15.9
"2019/10/16", 15.6, 16.3, 14.4
"2019/10/17", 16.6, 18.6, 14.3
"2019/10/18", 17.0, 17.8, 16.0
"2019/10/19", 17.8, 19.4, 15.7
"2019/10/20", 18.7, 20.1, 17.4
"2019/10/21", 17.4, 18.3, 15.8
"2019/10/22", 15.2, 16.1, 13.7
"2019/10/23", 17.6, 21.7, 12.9
"2019/10/24", 17.5, 18.6, 16.5
"2019/10/25", 16.4, 19.2, 14.1
"2019/10/26", 18.1, 22.3, 14.7
"2019/10/27", 17.1, 18.4, 15.4
"2019/10/28", 15.7, 17.2, 14.0
"2019/10/29", 14.3, 15.0, 13.0
"2019/10/30", 14.7, 18.5, 10.6
"2019/10/31", 16.3, 18.7, 14.2
"2019/11/01", 15.6, 20.2, 10.2
"2019/11/02", 14.2, 15.9, 11.4
"2019/11/03", 15.0, 17.7, 12.2
"2019/11/04", 13.9, 16.3,  9.1
"2019/11/05", 12.0, 16.2,  6.8
"2019/11/06", 13.1, 17.6,  6.4
"2019/11/07", 15.2, 20.5,  8.8
"2019/11/08", 13.5, 14.8, 11.1
"2019/11/09", 12.2, 16.1,  9.8
"2019/11/10", 12.8, 15.4, 10.1
"2019/11/11", 13.2, 16.5, 10.0
"2019/11/12", 14.5, 18.9,  9.7
"2019/11/13", 13.3, 15.8, 11.1
"2019/11/14", 14.6, 19.8, 10.9
"2019/11/15", 11.5, 13.9,  7.5
"2019/11/16", 11.5, 16.1,  6.3
"2019/11/17", 12.5, 16.3,  7.1
"2019/11/18", 14.2, 19.8,  8.6
"2019/11/19", 15.2, 19.8, 11.8
"2019/11/20", 10.8, 13.0,  8.1
"2019/11/21",  9.1, 12.5,  4.4
"2019/11/22",  9.3, 12.0,  7.7
"2019/11/23", 12.7, 14.3,  9.6
"2019/11/24", 15.4, 16.9, 13.1
"2019/11/25", 14.4, 16.7, 10.1
"2019/11/26",  8.6, 10.2,  7.2
"2019/11/27",  9.0, 10.4,  7.7
"2019/11/28",  8.7, 10.9,  4.2
"2019/11/29",  4.5,  8.2,  1.6
"2019/11/30",  5.0,  8.8,  0.8
"2019/12/01",  6.7, 11.3,  3.0
"2019/12/02",  9.7, 16.2,  5.5
"2019/12/03", 11.0, 14.6,  7.3
"2019/12/04",  8.7, 14.5,  2.9
"2019/12/05",  8.0, 13.3,  3.1
"2019/12/06",  6.3,  8.1,  4.9
"2019/12/07",  4.8,  6.2,  3.6
"2019/12/08",  6.4, 10.6,  1.6
"2019/12/09",  6.6,  9.6,  3.6
"2019/12/10",  9.8, 13.3,  6.3
"2019/12/11", 11.2, 13.8,  8.6
"2019/12/12", 10.9, 17.4,  6.6
"2019/12/13",  6.3,  7.6,  5.3
"2019/12/14",  8.2, 13.2,  3.1
"2019/12/15",  6.9,  9.2,  4.6
"2019/12/16",  6.2,  9.6,  2.6
"2019/12/17",  7.4,  9.9,  5.5
"2019/12/18",  8.6, 12.7,  5.2
"2019/12/19",  7.8,  9.1,  6.7
"2019/12/20",  8.4, 12.1,  5.1
"2019/12/21",  6.3,  8.7,  4.6
"2019/12/22",  6.7,  9.6,  4.2
"2019/12/23",  6.3,  9.6,  4.0
"2019/12/24",  6.6, 10.1,  2.4
"2019/12/25",  4.6,  6.6,  1.4
"2019/12/26",  6.6, 10.9,  2.2
"2019/12/27",  7.5, 11.8,  1.8
"2019/12/28",  4.3,  7.9, -0.6
"2019/12/29",  4.4,  9.2, -1.2
"2019/12/30",  5.4,  6.5,  4.2
"2019/12/31",  6.9, 15.3,  1.6
